Overview Statistics Trail Chart Weather Telemetry Raw packets
 

This is the latest recevied weather packets stored in our database for station/object KC5DAQ-26. If no packets are shown the sender has not sent any weather packets the latest 10 day(s).

<< 554 555 556 557 558 559 560 >>
Time Temp. Humidity Pressure Rain* Wind** Luminosity Snow
1787750385 27.78° C 90% 1020.3 hPa 0 mm - 179 W/m² -
1787750323 27.78° C 90% 1020.3 hPa 0 mm - 176 W/m² -
1787750263 27.78° C 90% 1020.2 hPa 0 mm - 172 W/m² -
1787750204 27.78° C 90% 1020.4 hPa 0 mm - 171 W/m² -
1787750144 27.78° C 90% 1020.3 hPa 0 mm - 167 W/m² -
1787750084 27.78° C 90% 1020.2 hPa 0 mm - 165 W/m² -
1787750024 27.78° C 90% 1020.1 hPa 0 mm - 162 W/m² -
1787749963 27.78° C 90% 1020.2 hPa 0 mm - 155 W/m² -
1787749903 27.78° C 90% 1020.3 hPa 0 mm - 151 W/m² -
1787749843 27.78° C 90% 1020.2 hPa 0 mm - 148 W/m² -
1787749785 27.78° C 90% 1020.3 hPa 0 mm - 144 W/m² -
1787749723 27.78° C 90% 1020.3 hPa 0 mm - 141 W/m² -
1787749666 27.78° C 90% 1020.3 hPa 0 mm - 134 W/m² -
1787749604 27.78° C 90% 1020.3 hPa 0 mm - 130 W/m² -
1787749546 27.78° C 91% 1020.3 hPa 0 mm - 127 W/m² -
1787749483 27.78° C 91% 1020.3 hPa 0 mm - 121 W/m² -
1787749425 27.78° C 91% 1020.4 hPa 0 mm - 118 W/m² -
1787749365 27.78° C 91% 1020.3 hPa 0 mm - 114 W/m² -
1787749304 27.22° C 91% 1020.3 hPa 0 mm - 109 W/m² -
1787749243 27.22° C 91% 1020.2 hPa 0 mm - 107 W/m² -
1787749184 27.22° C 92% 1020.2 hPa 0 mm - 107 W/m² -
1787749123 27.22° C 92% 1020.2 hPa 0 mm - 106 W/m² -
1787749063 27.22° C 92% 1020.1 hPa 0 mm - 104 W/m² -
1787749003 27.22° C 92% 1020 hPa 0 mm - 104 W/m² -
1787748945 27.22° C 92% 1020 hPa 0 mm - 97 W/m² -

* Rain latest hour (hover to see other rain measurements)
** Current wind speed in m/s (hover to see current wind gust speed)